Wind_Speed
18 16 15 13 11 9 7 7 8 12 14 15 15 16 16 16 17 16 16 15 15 13 11 10 8 7 7 6 5 5 4 4 3 3 3 3 2 1 2 2 2 2 3
18 15 14 13 12 9 8 8 8 10 13 14 15 17 17 17 18 18 17 16 16 14 13 12 10 9 8 7 7 6 5 5 4 4 4 3 2 2 2 2 2 1 1
17 16 15 13 12 10 7 7 6 8 11 13 14 15 16 17 17 17 17 17 16 15 14 13 12 10 10 9 8 7 7 6 5 5 4 4 3 2 2 1 1 1 2
16 15 15 13 12 10 7 6 5 7 8 10 13 13 15 16 18 18 18 18 17 17 15 14 13 12 12 11 10 9 8 8 7 6 6 5 4 4 3 3 3 3 4
15 15 14 13 11 9 7 5 3 6 7 9 10 12 14 17 18 18 18 18 18 17 17 15 15 14 14 13 12 11 10 10 9 8 8 8 7 7 6 6 6 6 6
14 13 12 11 10 9 6 3 3 5 5 7 9 11 12 15 17 18 17 18 18 18 17 17 16 16 15 14 13 13 13 12 12 11 11 10 10 10 10 10 10 10 10
12 11 11 10 10 8 5 3 3 4 5 6 9 12 13 15 17 17 17 17 18 19 18 18 17 16 15 15 15 15 14 14 14 14 13 14 14 13 13 14 14 14 14
10 10 10 10 10 8 6 4 3 4 5 6 8 11 12 13 15 17 16 17 18 19 19 18 18 17 17 16 16 16 16 16 16 16 16 17 17 16 16 17 17 17 17
9 9 10 10 10 9 6 4 3 4 5 6 8 10 12 14 16 16 16 17 18 18 18 19 18 18 18 18 18 18 18 18 18 18 19 19 19 19 19 19 20 20 21
8 9 10 11 11 9 6 5 5 5 5 7 8 10 11 13 16 16 16 17 18 18 18 18 18 18 18 18 18 19 19 20 20 20 21 21 21 21 21 21 22 23 23
10 11 11 11 10 8 5 5 6 6 6 6 8 9 11 13 14 15 15 16 17 18 19 19 19 19 19 20 20 21 21 21 22 23 23 23 22 22 23 24 24 25 25
11 11 11 11 10 9 7 5 6 7 7 6 7 9 11 12 13 13 14 15 16 17 18 19 19 19 20 20 21 22 23 23 24 24 24 25 25 25 25 26 26 27 28
13 12 11 10 10 10 8 8 7 7 8 8 8 10 11 12 13 14 15 15 15 17 18 19 20 20 20 20 21 22 22 23 24 24 25 25 25 26 26 27 28 29 30
14 14 13 12 11 11 11 11 10 9 10 11 11 11 12 13 14 15 15 15 16 17 18 19 19 20 20 21 21 22 22 22 23 23 24 25 26 27 28 29 30 30 31
15 15 14 14 14 13 14 13 12 12 11 12 13 13 13 13 14 15 15 16 16 17 18 19 20 20 20 21 22 23 23 25 25 25 25 26 28 29 30 30 31 32 33
16 16 16 17 17 16 16 15 14 13 13 13 13 14 15 15 15 15 16 16 16 16 18 19 20 21 21 20 21 22 23 24 25 26 27 28 29 30 31 32 33 34 36
20 20 19 18 18 18 17 16 16 15 14 14 14 15 15 15 15 15 15 15 16 17 18 18 19 20 20 21 21 22 23 24 25 27 28 29 30 31 32 33 35 36 38
23 22 22 22 21 20 19 18 16 16 15 15 16 16 17 16 16 16 16 17 18 19 20 20 19 19 20 21 21 22 24 25 26 28 29 30 31 32 34 35 37 39 41
24 23 23 23 23 22 20 19 18 18 18 18 17 17 18 17 17 17 18 18 18 19 20 21 21 21 22 23 24 25 26 27 28 29 31 32 34 36 38 39 41 43 45
25 24 24 25 24 23 22 22 21 21 21 20 20 19 19 18 18 19 19 19 20 21 22 23 23 23 23 25 26 27 28 29 31 33 35 36 38 39 40 42 44 46 48
26 25 25 24 24 23 24 23 23 23 23 23 22 22 22 21 22 21 21 21 22 23 24 24 24 25 26 28 28 29 31 32 34 35 37 38 39 41 43 45 47 48 50
25 25 24 24 23 24 24 24 23 24 24 25 24 25 26 25 25 24 23 23 23 23 25 27 27 28 29 30 31 32 33 34 35 37 38 40 41 43 45 46 48 49 51
25 25 25 24 24 24 24 23 23 24 25 26 27 27 26 25 25 25 25 25 25 25 27 28 29 30 31 32 33 34 35 36 37 38 39 41 42 44 45 47 49 51 53
26 26 25 25 25 24 24 24 23 23 25 26 26 26 26 26 25 25 25 26 27 29 29 30 30 31 32 33 34 34 35 37 40 41 41 42 43 45 47 49 51 53 55
26 25 24 24 24 24 24 24 24 24 25 25 25 25 26 26 25 25 26 27 27 28 28 29 31 31 32 33 34 36 37 39 40 41 42 43 45 47 49 51 52 54 55
26 25 24 24 24 24 25 24 24 24 25 25 25 25 25 25 25 25 25 26 27 28 29 30 31 32 32 33 35 36 36 38 40 42 43 44 46 47 48 50 51 52 52
Wind_Direction
337 335 336 335 329 320 301 283 244 217 211 209 212 209 207 204 208 213 215 217 217 217 217 219 221 223 224 222 221 215 206 194 185 182 178 173 163 172 179 187 200 206 222
336 335 335 334 332 320 298 275 249 219 210 208 210 208 208 207 209 213 214 213 214 217 217 219 219 220 222 218 215 213 208 200 193 194 193 184 172 154 152 153 156 166 191
336 335 333 330 328 322 299 268 239 218 209 208 208 209 213 215 211 213 214 214 213 215 219 221 218 218 219 217 213 212 208 204 204 202 199 196 192 178 174 186 200 223 238
334 331 331 329 325 317 300 275 248 216 208 206 208 212 216 216 215 216 216 216 215 216 220 223 221 221 222 219 218 217 216 216 215 212 215 220 225 228 235 249 253 255 260
330 330 331 330 326 318 304 283 244 221 214 213 211 213 214 214 215 217 218 218 216 217 220 222 224 225 226 224 223 223 223 223 224 226 231 235 241 245 252 260 264 266 268
326 331 333 333 333 326 315 285 255 226 221 218 213 212 212 213 214 218 221 220 219 219 220 222 225 227 229 229 229 230 230 231 232 236 241 246 250 253 257 262 266 269 270
325 331 339 340 338 331 322 291 250 235 233 226 220 217 218 215 215 217 220 220 220 221 223 225 225 228 230 231 233 235 236 237 240 244 248 251 255 259 261 264 266 268 269
319 322 331 338 338 327 313 286 261 246 240 236 225 219 218 220 221 220 221 221 220 224 226 227 228 232 233 235 237 238 241 243 246 249 252 254 257 261 264 265 266 267 269
312 314 318 328 328 320 306 278 260 250 242 241 230 222 220 221 223 222 224 222 221 224 227 229 233 236 237 239 241 243 245 247 251 253 256 257 258 260 263 265 267 268 269
302 309 312 322 325 314 291 272 258 266 255 246 235 225 224 225 225 226 225 222 223 225 228 229 234 238 240 243 246 248 249 251 254 256 258 260 260 261 262 265 267 268 270
287 296 305 313 320 326 306 283 268 263 259 250 239 236 231 229 228 229 226 226 226 227 230 234 237 241 244 246 249 251 254 256 258 260 261 262 261 262 264 266 267 269 270
285 293 301 308 311 319 319 307 286 269 256 253 248 241 237 233 229 228 229 230 230 233 235 238 241 245 249 251 253 257 260 261 262 263 263 264 262 265 268 268 269 271 273
286 289 294 300 304 308 310 306 296 281 263 254 249 243 240 236 231 231 232 231 232 235 236 239 242 247 251 255 257 261 263 263 264 264 264 264 265 267 270 271 271 273 275
285 285 287 289 294 300 305 304 292 282 273 262 251 246 244 240 236 235 234 238 240 240 240 242 245 248 253 258 260 261 264 264 265 267 267 268 271 272 273 273 273 275 277
281 278 280 283 288 294 298 297 287 278 272 263 256 250 248 244 239 238 239 243 245 246 245 247 249 253 257 260 261 263 265 267 267 269 270 273 275 275 275 276 277 278 279
276 277 277 281 285 287 290 288 285 277 269 262 255 254 251 247 244 244 247 246 247 250 249 249 253 256 259 260 262 263 266 268 269 271 273 275 276 276 276 277 278 279 279
276 277 278 280 282 284 285 283 279 272 267 258 253 253 249 247 246 244 246 248 249 252 253 254 258 261 261 262 264 268 270 272 272 272 275 277 277 277 278 279 280 280 281
274 276 276 276 278 281 281 279 275 272 267 259 255 253 248 247 246 248 248 248 249 252 254 258 260 261 264 265 267 270 271 274 276 277 277 278 280 281 281 281 282 282 283
273 273 273 274 276 276 275 274 272 268 267 261 257 257 251 248 250 251 251 251 254 256 260 264 264 265 267 270 271 273 275 276 277 278 279 280 282 282 283 283 283 284 284
273 271 272 274 275 272 270 270 270 267 264 260 257 256 255 253 253 252 253 257 258 261 263 265 266 268 272 273 274 275 276 278 280 281 281 282 283 283 284 285 285 286 286
272 272 272 271 271 271 269 267 264 264 262 259 256 255 256 255 255 256 257 260 262 262 263 265 268 270 272 275 277 278 280 281 282 283 284 284 284 284 285 286 286 287 287
272 272 271 270 269 268 267 265 263 262 260 259 256 256 255 255 257 258 258 258 261 263 266 269 271 275 277 277 278 280 282 284 285 285 286 286 287 287 288 288 288 289 289
271 271 270 269 268 266 265 264 263 262 259 259 257 258 256 255 257 260 259 259 261 263 268 272 275 277 280 279 280 283 284 285 286 287 287 288 288 289 290 290 291 291 292
270 270 269 267 266 264 262 263 263 262 260 259 257 256 256 257 257 259 261 261 265 267 271 272 276 279 280 280 281 284 286 287 287 287 288 290 291 292 292 293 294 294 295
269 268 267 265 264 262 261 261 261 260 258 257 258 258 256 256 256 258 260 263 265 267 270 273 276 278 280 281 285 287 287 287 288 289 291 292 294 295 296 297 298 299 299
266 266 265 264 264 262 261 260 260 258 257 256 255 256 255 255 257 258 259 262 265 268 272 275 278 279 281 285 288 288 289 292 293 293 295 296 298 299 300 301 302 302 302
Height
5854 5851 5849 5847 5845 5843 5841 5840 5840 5841 5842 5845 5849 5852 5855 5858 5861 5864 5867 5869 5872 5874 5876 5878 5879 5881 5882 5883 5884 5885 5885 5886 5886 5887 5887 5888 5888 5888 5889 5889 5889 5890 5890
5854 5850 5848 5846 5844 5841 5839 5838 5837 5838 5840 5844 5847 5850 5853 5855 5859 5862 5864 5867 5870 5872 5874 5876 5878 5879 5881 5882 5883 5884 5885 5885 5886 5887 5887 5888 5889 5888 5889 5889 5889 5889 5889
5853 5850 5847 5845 5843 5841 5839 5837 5837 5838 5839 5842 5844 5847 5850 5853 5856 5859 5863 5865 5867 5870 5872 5874 5876 5878 5879 5880 5882 5883 5884 5885 5885 5886 5887 5888 5888 5888 5889 5889 5889 5889 5889
5852 5849 5847 5844 5842 5839 5838 5837 5836 5837 5838 5840 5842 5845 5848 5851 5854 5857 5860 5863 5865 5868 5870 5872 5874 5876 5878 5879 5880 5882 5883 5884 5885 5886 5886 5887 5888 5888 5888 5889 5889 5889 5889
5850 5848 5845 5843 5840 5838 5836 5836 5835 5836 5837 5839 5840 5843 5846 5849 5852 5855 5858 5860 5863 5865 5867 5870 5872 5874 5876 5877 5879 5880 5882 5883 5884 5884 5885 5886 5887 5887 5888 5888 5888 5888 5888
5848 5846 5844 5842 5840 5837 5836 5835 5835 5836 5836 5837 5839 5841 5843 5847 5849 5852 5855 5857 5860 5863 5865 5867 5870 5872 5874 5875 5877 5878 5880 5881 5882 5883 5884 5885 5885 5885 5886 5886 5886 5886 5886
5846 5845 5843 5841 5840 5837 5836 5835 5835 5836 5836 5837 5838 5840 5842 5844 5847 5850 5852 5855 5857 5860 5863 5865 5867 5869 5871 5873 5874 5876 5877 5878 5880 5881 5881 5882 5883 5883 5883 5883 5883 5883 5883
5845 5844 5843 5841 5840 5838 5836 5835 5835 5835 5835 5836 5837 5838 5840 5842 5844 5846 5849 5852 5855 5857 5860 5862 5864 5866 5868 5870 5871 5873 5874 5876 5877 5878 5878 5879 5879 5879 5879 5879 5879 5879 5879
5844 5843 5842 5840 5839 5837 5836 5835 5834 5834 5835 5835 5835 5836 5837 5839 5841 5844 5846 5849 5852 5854 5857 5859 5861 5863 5865 5867 5868 5870 5871 5872 5873 5874 5874 5875 5875 5875 5875 5875 5875 5875 5875
5842 5841 5840 5839 5837 5836 5835 5834 5834 5833 5833 5833 5833 5834 5836 5837 5839 5841 5843 5845 5848 5851 5853 5855 5857 5860 5862 5863 5864 5866 5867 5868 5869 5869 5870 5870 5870 5870 5870 5870 5870 5870 5870
5840 5839 5838 5837 5836 5834 5833 5833 5833 5832 5832 5832 5832 5833 5834 5835 5837 5839 5840 5843 5845 5847 5849 5851 5853 5855 5857 5859 5860 5861 5862 5863 5864 5864 5864 5865 5865 5865 5865 5865 5864 5864 5863
5838 5837 5836 5836 5835 5833 5832 5832 5831 5831 5831 5831 5831 5831 5832 5833 5835 5837 5838 5840 5842 5844 5846 5848 5849 5851 5852 5854 5855 5856 5857 5857 5858 5858 5858 5859 5859 5859 5859 5858 5858 5857 5857
5835 5835 5834 5834 5833 5832 5830 5830 5829 5829 5829 5829 5829 5829 5830 5831 5833 5834 5835 5837 5838 5840 5842 5844 5845 5846 5848 5849 5850 5850 5851 5851 5851 5852 5852 5852 5852 5852 5852 5851 5851 5850 5849
5832 5832 5831 5831 5830 5830 5828 5827 5827 5827 5826 5826 5827 5827 5828 5829 5830 5831 5832 5834 5835 5836 5838 5839 5841 5842 5843 5844 5844 5845 5845 5845 5845 5845 5845 5845 5845 5844 5844 5843 5842 5841 5841
5829 5829 5828 5828 5827 5827 5825 5824 5823 5823 5823 5823 5823 5824 5825 5825 5826 5827 5829 5830 5831 5832 5834 5835 5836 5837 5838 5838 5839 5839 5839 5839 5839 5839 5838 5838 5837 5837 5836 5835 5834 5833 5831
5825 5825 5824 5824 5823 5822 5821 5821 5820 5819 5819 5819 5820 5820 5821 5821 5822 5823 5825 5826 5827 5828 5829 5830 5831 5832 5833 5833 5833 5833 5833 5833 5833 5832 5832 5831 5830 5829 5828 5827 5825 5824 5822
5819 5819 5819 5818 5818 5817 5817 5816 5816 5815 5815 5815 5816 5816 5816 5817 5818 5820 5821 5822 5823 5824 5825 5826 5827 5827 5827 5828 5828 5828 5827 5827 5826 5826 5825 5824 5822 5821 5819 5818 5816 5814 5812
5813 5813 5813 5813 5813 5812 5812 5811 5811 5811 5811 5811 5812 5812 5813 5813 5815 5816 5817 5818 5819 5820 5821 5821 5821 5822 5822 5822 5822 5822 5821 5820 5820 5819 5817 5816 5814 5813 5811 5809 5806 5804 5802
5807 5807 5807 5806 5806 5806 5806 5806 5805 5806 5806 5807 5807 5808 5808 5809 5810 5811 5812 5813 5814 5815 5815 5816 5816 5816 5816 5816 5816 5816 5815 5813 5812 5811 5809 5807 5805 5803 5801 5799 5796 5793 5790
5799 5799 5800 5799 5799 5799 5800 5800 5800 5800 5801 5801 5802 5803 5803 5804 5806 5806 5807 5808 5809 5809 5809 5809 5810 5810 5810 5810 5809 5808 5807 5805 5804 5802 5800 5798 5796 5793 5790 5787 5784 5781 5778
5791 5792 5792 5792 5792 5792 5793 5793 5793 5794 5795 5795 5796 5797 5798 5799 5800 5801 5802 5802 5803 5803 5803 5803 5803 5803 5803 5802 5801 5800 5798 5797 5795 5793 5790 5788 5785 5783 5779 5776 5773 5769 5765
5783 5784 5784 5784 5784 5785 5785 5786 5786 5787 5787 5788 5789 5790 5791 5792 5794 5794 5795 5796 5796 5796 5796 5795 5795 5795 5794 5793 5792 5791 5790 5788 5785 5783 5780 5778 5775 5772 5768 5764 5760 5756 5751
5775 5776 5776 5776 5777 5777 5778 5778 5779 5780 5780 5781 5782 5783 5784 5785 5786 5787 5788 5788 5788 5789 5788 5788 5786 5786 5785 5784 5783 5781 5780 5778 5775 5773 5770 5767 5763 5760 5756 5751 5747 5742 5737
5767 5767 5768 5769 5769 5769 5770 5771 5772 5772 5773 5774 5775 5776 5777 5778 5779 5780 5780 5780 5781 5781 5781 5779 5779 5778 5776 5775 5773 5772 5770 5768 5765 5762 5759 5755 5752 5748 5743 5738 5733 5727 5722
5758 5759 5760 5760 5761 5761 5762 5763 5764 5765 5765 5766 5768 5769 5770 5771 5771 5772 5773 5773 5774 5774 5773 5772 5771 5770 5768 5766 5764 5763 5761 5758 5755 5752 5748 5744 5740 5735 5730 5724 5718 5712 5706
5750 5751 5751 5752 5753 5754 5754 5755 5756 5757 5758 5759 5760 5762 5763 5764 5764 5765 5766 5766 5766 5766 5766 5765 5764 5762 5760 5758 5756 5754 5751 5748 5745 5741 5736 5732 5727 5722 5716 5710 5704 5698 5691